SCOUT A R/B

Satellite information

Favourite Embed

Satellite Type and Status

ROCKET BODYIN ORBIT

Key statistics

Satellite SCOUT A R/B at a glance.

Uptime

21599

Days in orbit

Revolutions

≈ 14.0

Per day

Orbit

SSO

Sun Synchronous Orbit

Inclination

90.2

Latest

Satellite identification and parameters

Extended collection of information and parameters for SCOUT A R/B.

Object identification

Identified? True

Debris? False

Object name: SCOUT A R/B

International designator: 1966-041B

Object number (NORAD): 2180

Object ID (CCSDS): 2180

Country: UNITED STATES OF AMERICA (US)

Current information (Y/N): Y

RCS size: MEDIUM

Orbital parameters

Period: 102.787 minutes

Inclination: 90.2237 deg

SMA: 7268.616 km

Apoapsis: 946.602 km

Periapsis: 834.36 km

RAAN: 74.095 deg

Eccentricy: 0.007721

Argument of periapsis: 332.5139 deg

Mean anomaly: 27.1966 deg

Mean motion: 14.00958157 rev/day

Mean motion (dot): 0.00000128 rev/day2

B* drag term: 0.00007716 1/REarth

Two-line elements (TLE)

Creation date: July 6, 2025, 10:26 p.m.

Reference frame: TEME

Reference center: EARTH

Epoch: July 6, 2025, 4:20 p.m. UTC

TLE line 0: 0 SCOUT A R/B

TLE line 1: 1 2180U 66041B 25187.68114915 .00000128 00000-0 77160-4 0 9992

TLE line 2: 2 2180 90.2237 74.0950 0077210 332.5139 27.1966 14.00958157 15360

Live tracking on map

Real-time ground track for satellite SCOUT A R/B.

In-orbit conjunctions

A list of the most updated potential collisions computed for object SCOUT A R/B.

Target Orbit TCA Probability of collision Miss distance Type
FENGYUN 1C DEB SSO 2025-07-09 21:47:01 0.001015483 108.0 (m) DEBRIS
FENGYUN 1C DEB SSO 2025-04-25 07:40:46 0.001554591 78.0 (m) DEBRIS
DELTA 1 DEB SSO 2024-11-01 11:52:15 0.0001248378 560.0 (m) DEBRIS
DMSP 5D-2 F13 DEB SSO 2024-09-29 06:31:40 0.0003688193 109.0 (m) DEBRIS
FENGYUN 1C DEB SSO 2024-06-02 10:56:11 0.0002182179 167.0 (m) DEBRIS

Associated space launch

The Transit-O series of satellites that closely followed the design of Transit 5C-1 were also called “Oscars” (Oscar is the phonetic alphabet for “O”, i. e., operational). They were also called NNS (Navy Navigation Satellite) or shortened NavSat.

SCOUT A R/B was lifted into orbit during the mission ‘Scout A | Transit-O 9’, on board a Scout A space rocket.

The launch took place on May 19, 1966, 2:27 a.m. from Space Launch Complex 5.

For more information about the launch, click the button.

Launch to space Scout A | Transit-O 9
Scout A | Transit-O 9

Agency: N/A

Status: Launch Successful

Launch date: May 19, 1966, 2:27 a.m. UTC

Rocket: Scout A

Launch pad: Space Launch Complex 5

Location: Vandenberg SFB, CA, USA

...

Latest news about this satellite

There are no fresh news available about this satellite. Check back as we update our databases every day.


Newsletter sign-up

Weekly statistics, charts and insights to help you stay on top of the space industry.